Tracking 30995 objects as of 5-Jul-2025
HD Live streaming from Space Station
objects crossing your sky now

FENGYUN 1C DEB

Track FENGYUN 1C DEB now!
10-day predictions


NORAD ID: 29890
Int'l Code: 1999-025GL
Perigee: 814.1 km
Apogee: 836.0 km
Inclination: 99.5 °
Period: 101.3 minutes
Semi major axis: 7196 km
RCS: 0.052 m2 (small)
Launch date: May 10, 1999
Source: People's Republic of China (PRC)
Launch site: Taiyaun Space Center, China (TSC)

Note: This is SATELLITE DEBRIS
Your satellite tracking list
Your tracking list is empty




NASA's NSSDC Master Catalog

Two Line Element Set (TLE):
1 29890U 99025GL  25185.84648887  .00001292  00000-0  60438-3 0  9995
2 29890  99.4588 295.5977 0015180 164.3212 195.8436 14.22205167951631
Source of the keplerian elements: AFSPC